Year,Month,Day,Hour,Minute,Value (Times are PST for temperature in C)
2014,08,19,00,00,18.50
2014,08,19,00,01,18.50
2014,08,19,00,02,18.40
2014,08,19,00,03,18.40
2014,08,19,00,04,18.40
2014,08,19,00,05,18.30
2014,08,19,00,06,18.30
2014,08,19,00,07,18.30
2014,08,19,00,08,18.30
2014,08,19,00,09,18.30
2014,08,19,00,10,18.30
2014,08,19,00,11,18.30
2014,08,19,00,12,18.30
2014,08,19,00,13,18.30
2014,08,19,00,14,18.30
2014,08,19,00,15,18.40
2014,08,19,00,16,18.40
2014,08,19,00,17,18.40
2014,08,19,00,18,18.40
2014,08,19,00,19,18.40
2014,08,19,00,20,18.40
2014,08,19,00,21,18.40
2014,08,19,00,22,18.40
2014,08,19,00,23,18.40
2014,08,19,00,24,18.40
2014,08,19,00,25,18.40
2014,08,19,00,26,18.30
2014,08,19,00,27,18.30
2014,08,19,00,28,18.30
2014,08,19,00,29,18.30
2014,08,19,00,30,18.30
2014,08,19,00,31,18.30
2014,08,19,00,32,18.30
2014,08,19,00,33,18.30
2014,08,19,00,34,18.30
2014,08,19,00,35,18.30
2014,08,19,00,36,18.30
2014,08,19,00,37,18.30
2014,08,19,00,38,18.30
2014,08,19,00,39,18.30
2014,08,19,00,40,18.30
2014,08,19,00,41,18.30
2014,08,19,00,42,18.30
2014,08,19,00,43,18.30
2014,08,19,00,44,18.30
2014,08,19,00,45,18.30
2014,08,19,00,46,18.30
2014,08,19,00,47,18.30
2014,08,19,00,48,18.30
2014,08,19,00,49,18.30
2014,08,19,00,50,18.30
2014,08,19,00,51,18.30
2014,08,19,00,52,18.30
2014,08,19,00,53,18.30
2014,08,19,00,54,18.30
2014,08,19,00,55,18.30
2014,08,19,00,56,18.30
2014,08,19,00,57,18.30
2014,08,19,00,58,18.30
2014,08,19,00,59,18.30
2014,08,19,01,00,18.40
2014,08,19,01,01,18.30
2014,08,19,01,02,18.30
2014,08,19,01,03,18.30
2014,08,19,01,04,18.30
2014,08,19,01,05,18.30
2014,08,19,01,06,18.30
2014,08,19,01,07,18.30
2014,08,19,01,08,18.30
2014,08,19,01,09,18.30
2014,08,19,01,10,18.30
2014,08,19,01,11,18.30
2014,08,19,01,12,18.30
2014,08,19,01,13,18.30
2014,08,19,01,14,18.30
2014,08,19,01,15,18.20
2014,08,19,01,16,18.20
2014,08,19,01,17,18.20
2014,08,19,01,18,18.10
2014,08,19,01,19,18.10
2014,08,19,01,20,18.00
2014,08,19,01,21,17.90
2014,08,19,01,22,17.90
2014,08,19,01,23,17.80
2014,08,19,01,24,17.80
2014,08,19,01,25,17.70
2014,08,19,01,26,17.70
2014,08,19,01,27,17.70
2014,08,19,01,28,17.60
2014,08,19,01,29,17.60
2014,08,19,01,30,17.50
2014,08,19,01,31,17.50
2014,08,19,01,32,17.40
2014,08,19,01,33,17.40
2014,08,19,01,34,17.30
2014,08,19,01,35,17.30
2014,08,19,01,36,17.30
2014,08,19,01,37,17.20
2014,08,19,01,38,17.20
2014,08,19,01,39,17.20
2014,08,19,01,40,17.20
2014,08,19,01,41,17.10
2014,08,19,01,42,17.10
2014,08,19,01,43,17.10
2014,08,19,01,44,17.00
2014,08,19,01,45,17.00
2014,08,19,01,46,16.90
2014,08,19,01,47,16.80
2014,08,19,01,48,16.80
2014,08,19,01,49,16.70
2014,08,19,01,50,16.60
2014,08,19,01,51,16.50
2014,08,19,01,52,16.40
2014,08,19,01,53,16.30
2014,08,19,01,54,16.30
2014,08,19,01,55,16.20
2014,08,19,01,56,16.10
2014,08,19,01,57,16.00
2014,08,19,01,58,15.90
2014,08,19,01,59,15.90
2014,08,19,02,00,15.90
2014,08,19,02,01,15.80
2014,08,19,02,02,15.80
2014,08,19,02,03,15.80
2014,08,19,02,04,15.80
2014,08,19,02,05,15.80
2014,08,19,02,06,15.80
2014,08,19,02,07,15.80
2014,08,19,02,08,15.80
2014,08,19,02,09,15.80
2014,08,19,02,10,15.90
2014,08,19,02,11,15.90
2014,08,19,02,12,15.90
2014,08,19,02,13,15.90
2014,08,19,02,14,15.90
2014,08,19,02,15,16.00
2014,08,19,02,16,16.00
2014,08,19,02,17,16.00
2014,08,19,02,18,16.00
2014,08,19,02,19,16.00
2014,08,19,02,20,16.10
2014,08,19,02,21,16.10
2014,08,19,02,22,16.10
2014,08,19,02,23,16.10
2014,08,19,02,24,16.10
2014,08,19,02,25,16.10
2014,08,19,02,26,16.10
2014,08,19,02,27,16.10
2014,08,19,02,28,16.10
2014,08,19,02,29,16.10
2014,08,19,02,30,16.10
2014,08,19,02,31,16.20
2014,08,19,02,32,16.20
2014,08,19,02,33,16.20
2014,08,19,02,34,16.20
2014,08,19,02,35,16.20
2014,08,19,02,36,16.20
2014,08,19,02,37,16.20
2014,08,19,02,38,16.20
2014,08,19,02,39,16.20
2014,08,19,02,40,16.20
2014,08,19,02,41,16.20
2014,08,19,02,42,16.20
2014,08,19,02,43,16.20
2014,08,19,02,44,16.20
2014,08,19,02,45,16.20
2014,08,19,02,46,16.20
2014,08,19,02,47,16.20
2014,08,19,02,48,16.20
2014,08,19,02,49,16.20
2014,08,19,02,50,16.20
2014,08,19,02,51,16.20
2014,08,19,02,52,16.20
2014,08,19,02,53,16.20
2014,08,19,02,54,16.20
2014,08,19,02,55,16.20
2014,08,19,02,56,16.20
2014,08,19,02,57,16.20
2014,08,19,02,58,16.20
2014,08,19,02,59,16.20
2014,08,19,03,00,16.20
2014,08,19,03,01,16.20
2014,08,19,03,02,16.20
2014,08,19,03,03,16.20
2014,08,19,03,04,16.20
2014,08,19,03,05,16.20
2014,08,19,03,06,16.20
2014,08,19,03,07,16.30
2014,08,19,03,08,16.30
2014,08,19,03,09,16.30
2014,08,19,03,10,16.30
2014,08,19,03,11,16.30
2014,08,19,03,12,16.30
2014,08,19,03,13,16.30
2014,08,19,03,14,16.30
2014,08,19,03,15,16.30
2014,08,19,03,16,16.30
2014,08,19,03,17,16.30
2014,08,19,03,18,16.30
2014,08,19,03,19,16.40
2014,08,19,03,20,16.40
2014,08,19,03,21,16.40
2014,08,19,03,22,16.40
2014,08,19,03,23,16.50
2014,08,19,03,24,16.50
2014,08,19,03,25,16.60
2014,08,19,03,26,16.60
2014,08,19,03,27,16.60
2014,08,19,03,28,16.60
2014,08,19,03,29,16.70
2014,08,19,03,30,16.70
2014,08,19,03,31,16.70
2014,08,19,03,32,16.70
2014,08,19,03,33,16.70
2014,08,19,03,34,16.70
2014,08,19,03,35,16.70
2014,08,19,03,36,16.80
2014,08,19,03,37,16.80
2014,08,19,03,38,16.80
2014,08,19,03,39,16.80
2014,08,19,03,40,16.70
2014,08,19,03,41,16.70
2014,08,19,03,42,16.70
2014,08,19,03,43,16.70
2014,08,19,03,44,16.70
2014,08,19,03,45,16.70
2014,08,19,03,46,16.70
2014,08,19,03,47,16.70
2014,08,19,03,48,16.70
2014,08,19,03,49,16.60
2014,08,19,03,50,16.60
2014,08,19,03,51,16.60
2014,08,19,03,52,16.60
2014,08,19,03,53,16.60
2014,08,19,03,54,16.50
2014,08,19,03,55,16.50
2014,08,19,03,56,16.50
2014,08,19,03,57,16.50
2014,08,19,03,58,16.40
2014,08,19,03,59,16.40
2014,08,19,04,00,16.40
2014,08,19,04,01,16.40
2014,08,19,04,02,16.40
2014,08,19,04,03,16.40
2014,08,19,04,04,16.40
2014,08,19,04,05,16.40
2014,08,19,04,06,16.40
2014,08,19,04,07,16.40
2014,08,19,04,08,16.30
2014,08,19,04,09,16.30
2014,08,19,04,10,16.30
2014,08,19,04,11,16.30
2014,08,19,04,12,16.30
2014,08,19,04,13,16.30
2014,08,19,04,14,16.30
2014,08,19,04,15,16.30
2014,08,19,04,16,16.30
2014,08,19,04,17,16.30
2014,08,19,04,18,16.30
2014,08,19,04,19,16.30
2014,08,19,04,20,16.30
2014,08,19,04,21,16.30
2014,08,19,04,22,16.30
2014,08,19,04,23,16.30
2014,08,19,04,24,16.30
2014,08,19,04,25,16.30
2014,08,19,04,26,16.20
2014,08,19,04,27,16.20
2014,08,19,04,28,16.20
2014,08,19,04,29,16.20
2014,08,19,04,30,16.20
2014,08,19,04,31,16.20
2014,08,19,04,32,16.20
2014,08,19,04,33,16.20
2014,08,19,04,34,16.10
2014,08,19,04,35,16.10
2014,08,19,04,36,16.10
2014,08,19,04,37,16.10
2014,08,19,04,38,16.10
2014,08,19,04,39,16.10
2014,08,19,04,40,16.10
2014,08,19,04,41,16.10
2014,08,19,04,42,16.10
2014,08,19,04,43,16.10
2014,08,19,04,44,16.00
2014,08,19,04,45,16.00
2014,08,19,04,46,16.00
2014,08,19,04,47,16.00
2014,08,19,04,48,16.00
2014,08,19,04,49,16.00
2014,08,19,04,50,16.00
2014,08,19,04,51,16.00
2014,08,19,04,52,16.00
2014,08,19,04,53,15.90
2014,08,19,04,54,15.90
2014,08,19,04,55,15.90
2014,08,19,04,56,15.90
2014,08,19,04,57,15.90
2014,08,19,04,58,15.90
2014,08,19,04,59,15.90
2014,08,19,05,00,15.90
2014,08,19,05,01,15.90
2014,08,19,05,02,15.90
2014,08,19,05,03,15.90
2014,08,19,05,04,15.80
2014,08,19,05,05,15.80
2014,08,19,05,06,15.80
2014,08,19,05,07,15.80
2014,08,19,05,08,15.80
2014,08,19,05,09,15.80
2014,08,19,05,10,15.80
2014,08,19,05,11,15.80
2014,08,19,05,12,15.80
2014,08,19,05,13,15.70
2014,08,19,05,14,15.70
2014,08,19,05,15,15.70
2014,08,19,05,16,15.70
2014,08,19,05,17,15.70
2014,08,19,05,18,15.60
2014,08,19,05,19,15.60
2014,08,19,05,20,15.60
2014,08,19,05,21,15.60
2014,08,19,05,22,15.60
2014,08,19,05,23,15.60
2014,08,19,05,24,15.60
2014,08,19,05,25,15.60
2014,08,19,05,26,15.50
2014,08,19,05,27,15.50
2014,08,19,05,28,15.50
2014,08,19,05,29,15.50
2014,08,19,05,30,15.50
2014,08,19,05,31,15.50
2014,08,19,05,32,15.40
2014,08,19,05,33,15.40
2014,08,19,05,34,15.40
2014,08,19,05,35,15.40
2014,08,19,05,36,15.40
2014,08,19,05,37,15.40
2014,08,19,05,38,15.40
2014,08,19,05,39,15.40
2014,08,19,05,40,15.40
2014,08,19,05,41,15.40
2014,08,19,05,42,15.40
2014,08,19,05,43,15.40
2014,08,19,05,44,15.30
2014,08,19,05,45,15.30
2014,08,19,05,46,15.30
2014,08,19,05,47,15.30
2014,08,19,05,48,15.30
2014,08,19,05,49,15.30
2014,08,19,05,50,15.30
2014,08,19,05,51,15.30
2014,08,19,05,52,15.20
2014,08,19,05,53,15.20
2014,08,19,05,54,15.20
2014,08,19,05,55,15.20
2014,08,19,05,56,15.20
2014,08,19,05,57,15.20
2014,08,19,05,58,15.20
2014,08,19,05,59,15.20
2014,08,19,06,00,15.20
2014,08,19,06,01,15.20
2014,08,19,06,02,15.20
2014,08,19,06,03,15.10
2014,08,19,06,04,15.10
2014,08,19,06,05,15.10
2014,08,19,06,06,15.10
2014,08,19,06,07,15.10
2014,08,19,06,08,15.10
2014,08,19,06,09,15.10
2014,08,19,06,10,15.00
2014,08,19,06,11,15.00
2014,08,19,06,12,15.00
2014,08,19,06,13,14.90
2014,08,19,06,14,14.90
2014,08,19,06,15,14.90
2014,08,19,06,16,14.80
2014,08,19,06,17,14.80
2014,08,19,06,18,14.80
2014,08,19,06,19,14.80
2014,08,19,06,20,14.70
2014,08,19,06,21,14.70
2014,08,19,06,22,14.70
2014,08,19,06,23,14.60
2014,08,19,06,24,14.60
2014,08,19,06,25,14.50
2014,08,19,06,26,14.40
2014,08,19,06,27,14.40
2014,08,19,06,28,14.30
2014,08,19,06,29,14.30
2014,08,19,06,30,14.20
2014,08,19,06,31,14.20
2014,08,19,06,32,14.20
2014,08,19,06,33,14.10
2014,08,19,06,34,14.10
2014,08,19,06,35,14.10
2014,08,19,06,36,14.00
2014,08,19,06,37,14.00
2014,08,19,06,38,14.00
2014,08,19,06,39,14.00
2014,08,19,06,40,14.00
2014,08,19,06,41,13.90
2014,08,19,06,42,13.90
2014,08,19,06,43,13.90
2014,08,19,06,44,13.90
2014,08,19,06,45,13.90
2014,08,19,06,46,13.90
2014,08,19,06,47,13.90
2014,08,19,06,48,13.90
2014,08,19,06,49,14.00
2014,08,19,06,50,13.90
2014,08,19,06,51,13.90
2014,08,19,06,52,13.90
2014,08,19,06,53,13.90
2014,08,19,06,54,14.00
2014,08,19,06,55,13.90
2014,08,19,06,56,14.00
2014,08,19,06,57,14.00
2014,08,19,06,58,14.00
2014,08,19,06,59,14.00
2014,08,19,07,00,14.00
2014,08,19,07,01,14.00
2014,08,19,07,02,14.00
2014,08,19,07,03,14.00
2014,08,19,07,04,14.00
2014,08,19,07,05,14.00
2014,08,19,07,06,14.00
2014,08,19,07,07,14.00
2014,08,19,07,08,14.00
2014,08,19,07,09,14.00
2014,08,19,07,10,14.00
2014,08,19,07,11,14.00
2014,08,19,07,12,14.00
2014,08,19,07,13,14.00
2014,08,19,07,14,14.10
2014,08,19,07,15,14.10
2014,08,19,07,16,14.10
2014,08,19,07,17,14.10
2014,08,19,07,18,14.10
2014,08,19,07,19,14.10
2014,08,19,07,20,14.10
2014,08,19,07,21,14.20
2014,08,19,07,22,14.20
2014,08,19,07,23,14.20
2014,08,19,07,24,14.20
2014,08,19,07,25,14.20
2014,08,19,07,26,14.20
2014,08,19,07,27,14.20
2014,08,19,07,28,14.20
2014,08,19,07,29,14.30
2014,08,19,07,30,14.30
2014,08,19,07,31,14.30
2014,08,19,07,32,14.30
2014,08,19,07,33,14.30
2014,08,19,07,34,14.30
2014,08,19,07,35,14.30
2014,08,19,07,36,14.30
2014,08,19,07,37,14.30
2014,08,19,07,38,14.40
2014,08,19,07,39,14.40
2014,08,19,07,40,14.40
2014,08,19,07,41,14.40
2014,08,19,07,42,14.40
2014,08,19,07,43,14.40
2014,08,19,07,44,14.50
2014,08,19,07,45,14.50
2014,08,19,07,46,14.60
2014,08,19,07,47,14.60
2014,08,19,07,48,14.60
2014,08,19,07,49,14.60
2014,08,19,07,50,14.70
2014,08,19,07,51,14.70
2014,08,19,07,52,14.70
2014,08,19,07,53,14.80
2014,08,19,07,54,14.90
2014,08,19,07,55,14.90
2014,08,19,07,56,14.90
2014,08,19,07,57,15.00
2014,08,19,07,58,15.10
2014,08,19,07,59,15.20
2014,08,19,08,00,15.20
2014,08,19,08,01,15.20
2014,08,19,08,02,15.30
2014,08,19,08,03,15.30
2014,08,19,08,04,15.30
2014,08,19,08,05,15.30
2014,08,19,08,06,15.30
2014,08,19,08,07,15.40
2014,08,19,08,08,15.40
2014,08,19,08,09,15.40
2014,08,19,08,10,15.40
2014,08,19,08,11,15.30
2014,08,19,08,12,15.30
2014,08,19,08,13,15.30
2014,08,19,08,14,15.30
2014,08,19,08,15,15.30
2014,08,19,08,16,15.30
2014,08,19,08,17,15.20
2014,08,19,08,18,15.20
2014,08,19,08,19,15.20
2014,08,19,08,20,15.20
2014,08,19,08,21,15.20
2014,08,19,08,22,15.20
2014,08,19,08,23,15.20
2014,08,19,08,24,15.20
2014,08,19,08,25,15.20
2014,08,19,08,26,15.20
2014,08,19,08,27,15.20
2014,08,19,08,28,15.30
2014,08,19,08,29,15.30
2014,08,19,08,30,15.20
2014,08,19,08,31,15.20
2014,08,19,08,32,15.20
2014,08,19,08,33,15.20
2014,08,19,08,34,15.20
2014,08,19,08,35,15.20
2014,08,19,08,36,15.20
2014,08,19,08,37,15.20
2014,08,19,08,38,15.30
2014,08,19,08,39,15.30
2014,08,19,08,40,15.30
2014,08,19,08,41,15.30
2014,08,19,08,42,15.30
2014,08,19,08,43,15.30
2014,08,19,08,44,15.40
2014,08,19,08,45,15.40
2014,08,19,08,46,15.40
2014,08,19,08,47,15.40
2014,08,19,08,48,15.50
2014,08,19,08,49,15.50
2014,08,19,08,50,15.50
2014,08,19,08,51,15.60
2014,08,19,08,52,15.60
2014,08,19,08,53,15.70
2014,08,19,08,54,15.70
2014,08,19,08,55,15.80
2014,08,19,08,56,15.80
2014,08,19,08,57,15.80
2014,08,19,08,58,15.90
2014,08,19,08,59,16.00
2014,08,19,09,00,16.00
2014,08,19,09,01,16.10
2014,08,19,09,02,16.20
2014,08,19,09,03,16.30
2014,08,19,09,04,16.40
2014,08,19,09,05,16.50
2014,08,19,09,06,16.60
2014,08,19,09,07,16.70
2014,08,19,09,08,16.80
2014,08,19,09,09,16.90
2014,08,19,09,10,17.00
2014,08,19,09,11,17.10
2014,08,19,09,12,17.30
2014,08,19,09,13,17.40
2014,08,19,09,14,17.50
2014,08,19,09,15,17.60
2014,08,19,09,16,17.70
2014,08,19,09,17,17.80
2014,08,19,09,18,17.90
2014,08,19,09,19,18.00
2014,08,19,09,20,18.20
2014,08,19,09,21,18.30
2014,08,19,09,22,18.30
2014,08,19,09,23,18.40
2014,08,19,09,24,18.50
2014,08,19,09,25,18.60
2014,08,19,09,26,18.70
2014,08,19,09,27,18.80
2014,08,19,09,28,18.90
2014,08,19,09,29,19.00
2014,08,19,09,30,19.10
2014,08,19,09,31,19.20
2014,08,19,09,32,19.30
2014,08,19,09,33,19.40
2014,08,19,09,34,19.50
2014,08,19,09,35,19.50
2014,08,19,09,36,19.50
2014,08,19,09,37,19.60
2014,08,19,09,38,19.60
2014,08,19,09,39,19.70
2014,08,19,09,40,19.70
2014,08,19,09,41,19.70
2014,08,19,09,42,19.70
2014,08,19,09,43,19.70
2014,08,19,09,44,19.70
2014,08,19,09,45,19.70
2014,08,19,09,46,19.70
2014,08,19,09,47,19.70
2014,08,19,09,48,19.70
2014,08,19,09,49,19.80
2014,08,19,09,50,19.80
2014,08,19,09,51,19.80
2014,08,19,09,52,19.80
2014,08,19,09,53,19.80
2014,08,19,09,54,19.80
2014,08,19,09,55,19.90
2014,08,19,09,56,20.00
2014,08,19,09,57,20.10
2014,08,19,09,58,20.10
2014,08,19,09,59,20.20
2014,08,19,10,00,20.30
2014,08,19,10,01,20.30
2014,08,19,10,02,20.40
2014,08,19,10,03,20.40
2014,08,19,10,04,20.40
2014,08,19,10,05,20.50
2014,08,19,10,06,20.50
2014,08,19,10,07,20.60
2014,08,19,10,08,20.70
2014,08,19,10,09,20.80
2014,08,19,10,10,20.90
2014,08,19,10,11,21.00
2014,08,19,10,12,21.00
2014,08,19,10,13,21.10
2014,08,19,10,14,21.10
2014,08,19,10,15,21.20
2014,08,19,10,16,21.30
2014,08,19,10,17,21.30
2014,08,19,10,18,21.40
2014,08,19,10,19,21.40
2014,08,19,10,20,21.40
2014,08,19,10,21,21.40
2014,08,19,10,22,21.30
2014,08,19,10,23,21.20
2014,08,19,10,24,21.20
2014,08,19,10,25,21.10
2014,08,19,10,26,21.00
2014,08,19,10,27,20.90
2014,08,19,10,28,20.80
2014,08,19,10,29,20.80
2014,08,19,10,30,20.70
2014,08,19,10,31,20.70
2014,08,19,10,32,20.70
2014,08,19,10,33,20.70
2014,08,19,10,34,20.60
2014,08,19,10,35,20.60
2014,08,19,10,36,20.60
2014,08,19,10,37,20.60
2014,08,19,10,38,20.50
2014,08,19,10,39,20.50
2014,08,19,10,40,20.50
2014,08,19,10,41,20.50
2014,08,19,10,42,20.50
2014,08,19,10,43,20.50
2014,08,19,10,44,20.50
2014,08,19,10,45,20.40
2014,08,19,10,46,20.40
2014,08,19,10,47,20.50
2014,08,19,10,48,20.50
2014,08,19,10,49,20.50
2014,08,19,10,50,20.50
2014,08,19,10,51,20.60
2014,08,19,10,52,20.60
2014,08,19,10,53,20.60
2014,08,19,10,54,20.70
2014,08,19,10,55,20.70
2014,08,19,10,56,20.70
2014,08,19,10,57,20.70
2014,08,19,10,58,20.80
2014,08,19,10,59,20.80
2014,08,19,11,00,20.90
2014,08,19,11,01,20.90
2014,08,19,11,02,20.90
2014,08,19,11,03,21.00
2014,08,19,11,04,21.00
2014,08,19,11,05,21.10
2014,08,19,11,06,21.10
2014,08,19,11,07,21.10
2014,08,19,11,08,21.20
2014,08,19,11,09,21.20
2014,08,19,11,10,21.30
2014,08,19,11,11,21.30
2014,08,19,11,12,21.30
2014,08,19,11,13,21.20
2014,08,19,11,14,21.20
2014,08,19,11,15,21.10
2014,08,19,11,16,21.10
2014,08,19,11,17,21.00
2014,08,19,11,18,21.00
2014,08,19,11,19,20.90
2014,08,19,11,20,20.90
2014,08,19,11,21,20.90
2014,08,19,11,22,20.80
2014,08,19,11,23,20.80
2014,08,19,11,24,20.70
2014,08,19,11,25,20.70
2014,08,19,11,26,20.70
2014,08,19,11,27,20.60
2014,08,19,11,28,20.60
2014,08,19,11,29,20.50
2014,08,19,11,30,20.50
2014,08,19,11,31,20.50
2014,08,19,11,32,20.50
2014,08,19,11,33,20.50
2014,08,19,11,34,20.50
2014,08,19,11,35,20.50
2014,08,19,11,36,20.40
2014,08,19,11,37,20.30
2014,08,19,11,38,20.20
2014,08,19,11,39,20.10
2014,08,19,11,40,20.00
2014,08,19,11,41,19.90
2014,08,19,11,42,19.80
2014,08,19,11,43,19.80
2014,08,19,11,44,19.70
2014,08,19,11,45,19.70
2014,08,19,11,46,19.60
2014,08,19,11,47,19.60
2014,08,19,11,48,19.60
2014,08,19,11,49,19.60
2014,08,19,11,50,19.50
2014,08,19,11,51,19.50
2014,08,19,11,52,19.50
2014,08,19,11,53,19.50
2014,08,19,11,54,19.50
2014,08,19,11,55,19.60
2014,08,19,11,56,19.60
2014,08,19,11,57,19.60
2014,08,19,11,58,19.60
2014,08,19,11,59,19.60
2014,08,19,12,00,19.60
2014,08,19,12,01,19.70
2014,08,19,12,02,19.70
2014,08,19,12,03,19.80
2014,08,19,12,04,19.80
2014,08,19,12,05,19.90
2014,08,19,12,06,19.90
2014,08,19,12,07,20.00
2014,08,19,12,08,20.00
2014,08,19,12,09,20.00
2014,08,19,12,10,20.00
2014,08,19,12,11,20.10
2014,08,19,12,12,20.10
2014,08,19,12,13,20.10
2014,08,19,12,14,20.10
2014,08,19,12,15,20.20
2014,08,19,12,16,20.30
2014,08,19,12,17,20.40
2014,08,19,12,18,20.50
2014,08,19,12,19,20.60
2014,08,19,12,20,20.70
2014,08,19,12,21,20.80
2014,08,19,12,22,20.90
2014,08,19,12,23,21.00
2014,08,19,12,24,21.00
2014,08,19,12,25,21.10
2014,08,19,12,26,21.10
2014,08,19,12,27,21.20
2014,08,19,12,28,21.30
2014,08,19,12,29,21.30
2014,08,19,12,30,21.30
2014,08,19,12,31,21.30
2014,08,19,12,32,21.20
2014,08,19,12,33,21.20
2014,08,19,12,34,21.30
2014,08,19,12,35,21.40
2014,08,19,12,36,21.40
2014,08,19,12,37,21.60
2014,08,19,12,38,21.70
2014,08,19,12,39,21.70
2014,08,19,12,40,21.70
2014,08,19,12,41,21.80
2014,08,19,12,42,21.80
2014,08,19,12,43,21.80
2014,08,19,12,44,21.80
2014,08,19,12,45,21.80
2014,08,19,12,46,21.80
2014,08,19,12,47,21.80
2014,08,19,12,48,21.70
2014,08,19,12,49,21.70
2014,08,19,12,50,21.80
2014,08,19,12,51,21.80
2014,08,19,12,52,21.90
2014,08,19,12,53,22.00
2014,08,19,12,54,22.10
2014,08,19,12,55,22.10
2014,08,19,12,56,22.00
2014,08,19,12,57,22.00
2014,08,19,12,58,21.90
2014,08,19,12,59,21.80
2014,08,19,13,00,21.80
2014,08,19,13,01,21.80
2014,08,19,13,02,21.70
2014,08,19,13,03,21.70
2014,08,19,13,04,21.80
2014,08,19,13,05,21.90
2014,08,19,13,06,22.00
2014,08,19,13,07,22.00
2014,08,19,13,08,22.10
2014,08,19,13,09,22.10
2014,08,19,13,10,22.20
2014,08,19,13,11,22.30
2014,08,19,13,12,22.30
2014,08,19,13,13,22.40
2014,08,19,13,14,22.40
2014,08,19,13,15,22.50
2014,08,19,13,16,22.60
2014,08,19,13,17,22.60
2014,08,19,13,18,22.70
2014,08,19,13,19,22.70
2014,08,19,13,20,22.70
2014,08,19,13,21,22.70
2014,08,19,13,22,22.80
2014,08,19,13,23,22.80
2014,08,19,13,24,22.80
2014,08,19,13,25,22.90
2014,08,19,13,26,22.90
2014,08,19,13,27,22.90
2014,08,19,13,28,23.00
2014,08,19,13,29,23.10
2014,08,19,13,30,23.20
2014,08,19,13,31,23.20
2014,08,19,13,32,23.20
2014,08,19,13,33,23.30
2014,08,19,13,34,23.30
2014,08,19,13,35,23.40
2014,08,19,13,36,23.40
2014,08,19,13,37,23.50
2014,08,19,13,38,23.50
2014,08,19,13,39,23.50
2014,08,19,13,40,23.50
2014,08,19,13,41,23.50
2014,08,19,13,42,23.50
2014,08,19,13,43,23.50
2014,08,19,13,44,23.60
2014,08,19,13,45,23.60
2014,08,19,13,46,23.60
2014,08,19,13,47,23.60
2014,08,19,13,48,23.70
2014,08,19,13,49,23.70
2014,08,19,13,50,23.70
2014,08,19,13,51,23.80
2014,08,19,13,52,23.80
2014,08,19,13,53,23.90
2014,08,19,13,54,23.90
2014,08,19,13,55,23.90
2014,08,19,13,56,23.90
2014,08,19,13,57,24.00
2014,08,19,13,58,24.00
2014,08,19,13,59,24.10
2014,08,19,14,00,24.10
2014,08,19,14,01,24.10
2014,08,19,14,02,24.20
2014,08,19,14,03,24.20
2014,08,19,14,04,24.30
2014,08,19,14,05,24.30
2014,08,19,14,06,24.30
2014,08,19,14,07,24.30
2014,08,19,14,08,24.30
2014,08,19,14,09,24.40
2014,08,19,14,10,24.40
2014,08,19,14,11,24.50
2014,08,19,14,12,24.50
2014,08,19,14,13,24.60
2014,08,19,14,14,24.60
2014,08,19,14,15,24.70
2014,08,19,14,16,24.80
2014,08,19,14,17,24.90
2014,08,19,14,18,24.90
2014,08,19,14,19,25.00
2014,08,19,14,20,25.00
2014,08,19,14,21,25.00
2014,08,19,14,22,25.10
2014,08,19,14,23,25.20
2014,08,19,14,24,25.20
2014,08,19,14,25,25.30
2014,08,19,14,26,25.40
2014,08,19,14,27,25.40
2014,08,19,14,28,25.50
2014,08,19,14,29,25.50
2014,08,19,14,30,25.50
2014,08,19,14,31,25.60
2014,08,19,14,32,25.60
2014,08,19,14,33,25.80
2014,08,19,14,34,25.90
2014,08,19,14,35,26.00
2014,08,19,14,36,26.10
2014,08,19,14,37,26.20
2014,08,19,14,38,26.20
2014,08,19,14,39,26.20
2014,08,19,14,40,26.20
2014,08,19,14,41,26.20
2014,08,19,14,42,26.30
2014,08,19,14,43,26.30
2014,08,19,14,44,26.30
2014,08,19,14,45,26.20
2014,08,19,14,46,26.10
2014,08,19,14,47,25.80
2014,08,19,14,48,25.50
2014,08,19,14,49,25.20
2014,08,19,14,50,25.10
2014,08,19,14,51,24.80
2014,08,19,14,52,24.50
2014,08,19,14,53,24.30
2014,08,19,14,54,24.10
2014,08,19,14,55,23.90
2014,08,19,14,56,23.60
2014,08,19,14,57,23.30
2014,08,19,14,58,23.10
2014,08,19,14,59,22.90
2014,08,19,15,00,22.70
2014,08,19,15,01,22.50
2014,08,19,15,02,22.40
2014,08,19,15,03,22.30
2014,08,19,15,04,22.20
2014,08,19,15,05,22.20
2014,08,19,15,06,22.20
2014,08,19,15,07,22.20
2014,08,19,15,08,22.20
2014,08,19,15,09,22.20
2014,08,19,15,10,22.20
2014,08,19,15,11,22.20
2014,08,19,15,12,22.20
2014,08,19,15,13,22.20
2014,08,19,15,14,22.20
2014,08,19,15,15,22.20
2014,08,19,15,16,22.20
2014,08,19,15,17,22.20
2014,08,19,15,18,22.40
2014,08,19,15,19,22.50
2014,08,19,15,20,22.60
2014,08,19,15,21,22.70
2014,08,19,15,22,22.80
2014,08,19,15,23,23.00
2014,08,19,15,24,23.20
2014,08,19,15,25,23.30
2014,08,19,15,26,23.40
2014,08,19,15,27,23.40
2014,08,19,15,28,23.40
2014,08,19,15,29,23.30
2014,08,19,15,30,23.30
2014,08,19,15,31,23.10
2014,08,19,15,32,23.00
2014,08,19,15,33,23.00
2014,08,19,15,34,22.90
2014,08,19,15,35,22.80
2014,08,19,15,36,22.70
2014,08,19,15,37,22.60
2014,08,19,15,38,22.50
2014,08,19,15,39,22.40
2014,08,19,15,40,22.20
2014,08,19,15,41,22.20
2014,08,19,15,42,22.10
2014,08,19,15,43,22.00
2014,08,19,15,44,21.90
2014,08,19,15,45,21.80
2014,08,19,15,46,21.70
2014,08,19,15,47,21.70
2014,08,19,15,48,21.70
2014,08,19,15,49,21.70
2014,08,19,15,50,21.60
2014,08,19,15,51,21.60
2014,08,19,15,52,21.60
2014,08,19,15,53,21.60
2014,08,19,15,54,21.60
2014,08,19,15,55,21.60
2014,08,19,15,56,21.70
2014,08,19,15,57,21.70
2014,08,19,15,58,21.70
2014,08,19,15,59,21.70
2014,08,19,16,00,21.70
2014,08,19,16,01,21.80
2014,08,19,16,02,21.80
2014,08,19,16,03,21.90
2014,08,19,16,04,22.00
2014,08,19,16,05,22.10
2014,08,19,16,06,22.10
2014,08,19,16,07,22.20
2014,08,19,16,08,22.20
2014,08,19,16,09,22.30
2014,08,19,16,10,22.30
2014,08,19,16,11,22.30
2014,08,19,16,12,22.30
2014,08,19,16,13,22.30
2014,08,19,16,14,22.30
2014,08,19,16,15,22.20
2014,08,19,16,16,22.20
2014,08,19,16,17,22.20
2014,08,19,16,18,22.10
2014,08,19,16,19,22.10
2014,08,19,16,20,22.00
2014,08,19,16,21,22.00
2014,08,19,16,22,22.00
2014,08,19,16,23,21.90
2014,08,19,16,24,21.90
2014,08,19,16,25,21.90
2014,08,19,16,26,21.80
2014,08,19,16,27,21.90
2014,08,19,16,28,22.00
2014,08,19,16,29,22.10
2014,08,19,16,30,22.10
2014,08,19,16,31,22.20
2014,08,19,16,32,22.30
2014,08,19,16,33,22.30
2014,08,19,16,34,22.30
2014,08,19,16,35,22.40
2014,08,19,16,36,22.60
2014,08,19,16,37,22.70
2014,08,19,16,38,22.80
2014,08,19,16,39,22.80
2014,08,19,16,40,22.90
2014,08,19,16,41,22.90
2014,08,19,16,42,23.00
2014,08,19,16,43,23.10
2014,08,19,16,44,23.30
2014,08,19,16,45,23.40
2014,08,19,16,46,23.50
2014,08,19,16,47,23.70
2014,08,19,16,48,23.80
2014,08,19,16,49,23.90
2014,08,19,16,50,24.00
2014,08,19,16,51,24.10
2014,08,19,16,52,24.20
2014,08,19,16,53,24.30
2014,08,19,16,54,24.40
2014,08,19,16,55,24.50
2014,08,19,16,56,24.50
2014,08,19,16,57,24.60
2014,08,19,16,58,24.60
2014,08,19,16,59,24.60
2014,08,19,17,00,24.60
2014,08,19,17,01,24.70
2014,08,19,17,02,24.70
2014,08,19,17,03,24.70
2014,08,19,17,04,24.70
2014,08,19,17,05,24.60
2014,08,19,17,06,24.60
2014,08,19,17,07,24.60
2014,08,19,17,08,24.50
2014,08,19,17,09,24.50
2014,08,19,17,10,24.50
2014,08,19,17,11,24.50
2014,08,19,17,12,24.60
2014,08,19,17,13,24.60
2014,08,19,17,14,24.60
2014,08,19,17,15,24.60
2014,08,19,17,16,24.60
2014,08,19,17,17,24.60
2014,08,19,17,18,24.50
2014,08,19,17,19,24.50